Hot Springs, VA

1:13 PM EDT on July 27, 2017 (GMT -0400)
Ingalls

Weather History for KHSP - November, 2013

Change the Weather History Date:

Wednesday, November 20, 2013

  Actual Average Record
Temperature  
Mean Temperature 28 °F -  
Max Temperature 35 °F 44 °F 57 °F (1999)
Min Temperature 21 °F 31 °F 21 °F (2000)
Degree Days  
Heating Degree Days 37    
Moisture  
Dew Point 19 °F    
Average Humidity 71    
Maximum Humidity 93    
Minimum Humidity 52    
Precipitation  
Precipitation 0.00 in - - ()
Sea Level Pressure  
Sea Level Pressure 30.35 in    
Wind  
Wind Speed 9 mph (East)    
Max Wind Speed 13 mph    
Max Gust Speed 18 mph    
Visibility 10 miles    
Events      
Averages and records for this station are not official NWS values.
T = Trace of Precipitation, MM = Missing Value Source: NWS Daily Summary

Daily Weather History Graph

Daily Weather History Graph

Search for Another Location

Airport or City:

Trip Planner

Search our weather history database for the weather conditions in past years. The results will help you decide how hot, cold, wet, or windy it might be!

Date:

Astronomy

Nov. 20, 2013 Rise Set
Actual Time 7:05 AM EST 5:04 PM EST
Civil Twilight 6:37 AM EST 5:32 PM EST
Nautical Twilight 6:05 AM EST 6:04 PM EST
Astronomical Twilight 5:33 AM EST 6:36 PM EST
Moon 7:45 PM EST (11/20) 9:29 AM EST (11/20)
Length of Visible Light 10h 55m
Length of Day
9h 58m
Waning Gibbous, 91% of the Moon is Illuminated
Nov 20
Waning Gibbous
Nov 25
Last Quarter
Dec 2
New
Dec 9
First Quarter
Dec 17
Full

Hourly Weather History & Observations

Time (EST) Temp. Windchill Dew Point Humidity Pressure Visibility Wind Dir Wind Speed Gust Speed Precip Events Conditions
12:55 AM 24.8 °F 16.1 °F 19.4 °F 80% 30.28 in 10.0 mi East 8.1 mph - N/A   Clear
1:15 AM 24.8 °F 15.3 °F 19.4 °F 80% 30.28 in 10.0 mi East 9.2 mph - N/A   Clear
1:35 AM 24.8 °F 16.1 °F 21.2 °F 86% 30.27 in 10.0 mi ENE 8.1 mph - N/A   Clear
2:15 AM 24.8 °F 16.1 °F 19.4 °F 80% 30.28 in 10.0 mi East 8.1 mph - N/A   Clear
2:35 AM 23.0 °F 13.9 °F 19.4 °F 86% 30.28 in 10.0 mi East 8.1 mph - N/A   Clear
2:55 AM 23.0 °F 12.4 °F 19.4 °F 86% 30.28 in 10.0 mi East 10.4 mph - N/A   Clear
3:15 AM 23.0 °F 13.1 °F 19.4 °F 86% 30.28 in 10.0 mi East 9.2 mph - N/A   Clear
3:35 AM 23.0 °F 13.1 °F 19.4 °F 86% 30.28 in 10.0 mi East 9.2 mph - N/A   Clear
3:55 AM 23.0 °F 12.4 °F 19.4 °F 86% 30.28 in 10.0 mi East 10.4 mph - N/A   Clear
4:15 AM 21.2 °F 9.5 °F 19.4 °F 93% 30.29 in 10.0 mi East 11.5 mph - N/A   Clear
4:35 AM 23.0 °F 11.7 °F 19.4 °F 86% 30.29 in 10.0 mi East 11.5 mph - N/A   Clear
4:55 AM 23.0 °F 11.7 °F 19.4 °F 86% 30.29 in 10.0 mi East 11.5 mph - N/A   Clear
5:15 AM 23.0 °F 11.1 °F 19.4 °F 86% 30.29 in 10.0 mi East 12.7 mph 17.3 mph N/A   Clear
5:35 AM 23.0 °F 11.1 °F 19.4 °F 86% 30.30 in 10.0 mi ESE 12.7 mph 18.4 mph N/A   Clear
5:55 AM 23.0 °F 11.1 °F 19.4 °F 86% 30.31 in 10.0 mi East 12.7 mph 17.3 mph N/A   Clear
6:15 AM 23.0 °F 11.1 °F 19.4 °F 86% 30.32 in 10.0 mi East 12.7 mph 16.1 mph N/A   Clear
6:35 AM 23.0 °F 12.4 °F 19.4 °F 86% 30.33 in 10.0 mi East 10.4 mph - N/A   Clear
6:55 AM 23.0 °F 12.4 °F 19.4 °F 86% 30.34 in 10.0 mi East 10.4 mph - N/A   Clear
7:15 AM 23.0 °F 13.9 °F 19.4 °F 86% 30.34 in 10.0 mi East 8.1 mph - N/A   Clear
7:35 AM 23.0 °F 12.4 °F 19.4 °F 86% 30.36 in 10.0 mi East 10.4 mph - N/A   Clear
7:55 AM 23.0 °F 13.1 °F 19.4 °F 86% 30.36 in 10.0 mi East 9.2 mph - N/A   Clear
8:15 AM 24.8 °F 15.3 °F 19.4 °F 80% 30.36 in 10.0 mi East 9.2 mph - N/A   Clear
8:35 AM 24.8 °F 14.0 °F 19.4 °F 80% 30.36 in 10.0 mi East 11.5 mph 16.1 mph N/A   Clear
8:55 AM 26.6 °F 16.2 °F 19.4 °F 74% 30.38 in 10.0 mi ESE 11.5 mph - N/A   Clear
9:15 AM 26.6 °F 16.2 °F 19.4 °F 74% 30.37 in 10.0 mi East 11.5 mph - N/A   Clear
9:35 AM 26.6 °F 16.8 °F 19.4 °F 74% 30.38 in 10.0 mi ESE 10.4 mph 16.1 mph N/A   Clear
9:55 AM 26.6 °F 16.8 °F 19.4 °F 74% 30.39 in 10.0 mi ESE 10.4 mph - N/A   Clear
10:15 AM 28.4 °F 19.1 °F 19.4 °F 69% 30.39 in 10.0 mi ESE 10.4 mph - N/A   Clear
10:35 AM 28.4 °F 19.7 °F 19.4 °F 69% 30.39 in 10.0 mi East 9.2 mph - N/A   Clear
10:55 AM 30.2 °F 22.6 °F 19.4 °F 64% 30.39 in 10.0 mi East 8.1 mph - N/A   Clear
11:15 AM 30.2 °F 21.9 °F 19.4 °F 64% 30.38 in 10.0 mi East 9.2 mph - N/A   Clear
11:35 AM 30.2 °F 21.9 °F 19.4 °F 64% 30.38 in 10.0 mi East 9.2 mph - N/A   Clear
11:55 AM 30.2 °F 21.9 °F 19.4 °F 64% 30.37 in 10.0 mi East 9.2 mph - N/A   Clear
12:15 PM 33.8 °F 27.0 °F 19.4 °F 56% 30.37 in 10.0 mi East 8.1 mph - N/A   Clear
12:35 PM 33.8 °F 27.7 °F 17.6 °F 52% 30.36 in 10.0 mi ESE 6.9 mph - N/A   Clear
12:55 PM 33.8 °F 26.4 °F 19.4 °F 56% 30.36 in 10.0 mi East 9.2 mph - N/A   Clear
1:35 PM 35.6 °F 28.6 °F 19.4 °F 52% 30.36 in 10.0 mi East 9.2 mph - N/A   Clear
1:55 PM 35.6 °F 30.7 °F 19.4 °F 52% 30.35 in 10.0 mi East 5.8 mph - N/A   Clear
2:15 PM 35.6 °F 29.9 °F 19.4 °F 52% 30.35 in 10.0 mi SE 6.9 mph - N/A   Clear
2:35 PM 35.6 °F 29.2 °F 19.4 °F 52% 30.35 in 10.0 mi East 8.1 mph - N/A   Clear
2:55 PM 35.6 °F 29.2 °F 19.4 °F 52% 30.35 in 10.0 mi East 8.1 mph - N/A   Clear
3:15 PM 35.6 °F 28.6 °F 19.4 °F 52% 30.35 in 10.0 mi East 9.2 mph - N/A   Clear
3:35 PM 35.6 °F 28.6 °F 19.4 °F 52% 30.35 in 10.0 mi East 9.2 mph - N/A   Clear
3:55 PM 35.6 °F 28.0 °F 19.4 °F 52% 30.35 in 10.0 mi East 10.4 mph - N/A   Clear
4:15 PM 33.8 °F 27.0 °F 17.6 °F 52% 30.36 in 10.0 mi East 8.1 mph - N/A   Clear
4:35 PM 33.8 °F 26.4 °F 19.4 °F 56% 30.37 in 10.0 mi East 9.2 mph - N/A   Clear
4:55 PM 33.8 °F 28.6 °F 19.4 °F 56% 30.37 in 10.0 mi East 5.8 mph - N/A   Clear
5:15 PM 32.0 °F 24.8 °F 19.4 °F 60% 30.37 in 10.0 mi East 8.1 mph - N/A   Clear
5:55 PM 30.2 °F 20.8 °F 19.4 °F 64% 30.37 in 10.0 mi East 11.5 mph - N/A   Clear
6:35 PM 30.2 °F 21.3 °F 19.4 °F 64% 30.38 in 10.0 mi East 10.4 mph - N/A   Clear
6:55 PM 28.4 °F 19.7 °F 19.4 °F 69% 30.38 in 10.0 mi East 9.2 mph - N/A   Clear
7:15 PM 28.4 °F 19.7 °F 19.4 °F 69% 30.38 in 10.0 mi East 9.2 mph - N/A   Clear
7:55 PM 28.4 °F 19.1 °F 19.4 °F 69% 30.39 in 10.0 mi ESE 10.4 mph - N/A   Scattered Clouds
8:15 PM 28.4 °F 18.0 °F 19.4 °F 69% 30.39 in 10.0 mi ESE 12.7 mph 16.1 mph N/A   Mostly Cloudy
8:35 PM 28.4 °F 19.1 °F 19.4 °F 69% 30.39 in 10.0 mi ESE 10.4 mph - N/A   Mostly Cloudy
9:15 PM 28.4 °F 20.4 °F 19.4 °F 69% 30.39 in 10.0 mi East 8.1 mph - N/A   Overcast
9:35 PM 26.6 °F 16.8 °F 19.4 °F 74% 30.39 in 10.0 mi ESE 10.4 mph - N/A   Scattered Clouds
9:55 PM 26.6 °F 19.1 °F 19.4 °F 74% 30.40 in 10.0 mi ESE 6.9 mph - N/A   Clear
10:15 PM 28.4 °F 19.1 °F 19.4 °F 69% 30.40 in 10.0 mi SE 10.4 mph - N/A   Clear
10:35 PM 28.4 °F 20.4 °F 21.2 °F 74% 30.41 in 10.0 mi SE 8.1 mph - N/A   Clear
11:15 PM 28.4 °F 20.4 °F 21.2 °F 74% 30.42 in 10.0 mi SE 8.1 mph - N/A   Overcast
11:35 PM 28.4 °F 19.7 °F 21.2 °F 74% 30.41 in 10.0 mi SE 9.2 mph - N/A   Overcast